Regional Weather Roundup
Issued by NWS

Home | Current Version | Previous Version | Text Only | Print | Product List | Glossary On
Versions: 1 2 3 4 5 6 7 8 9 10 11 12 13 14 15 16 17 18 19 20 21 22 23 24 25 26 27
000
ASUS45 KREV 231210
RWRNV
NEVADA REGIONAL WEATHER ROUNDUP
NATIONAL WEATHER SERVICE RENO NV
500 AM PDT WED APR 23 2014

NOTE: "FAIR" INDICATES FEW OR NO CLOUDS BELOW 12,000 FEET WITH NO
SIGNIFICANT WEATHER AND/OR OBSTRUCTIONS TO VISIBILITY.

NVZ001-003-004-231300-
WESTERN NEVADA

CITY           SKY/WX    TMP DP  RH WIND       PRES   REMARKS
RENO           CLEAR     37  22  54 CALM      30.05S
6HR MIN TEMP:  36; 6HR MAX TEMP:  43;

CARSON CITY    FAIR      32  23  69 CALM      30.05R
MINDEN         CLEAR     30  21  69 CALM      30.06R
SLIDE MTN        N/A     18  16  93 NW6         N/A
PYRAMID LAKE     N/A     39 N/A N/A W7          N/A
FALLON         CLEAR     29  18  63 CALM      30.04R
6HR MIN TEMP:  29; 6HR MAX TEMP:  41;

LOVELOCK       CLEAR     30  16  56 W3        30.04R
6HR MIN TEMP:  27; 6HR MAX TEMP:  44;

HAWTHORNE      CLEAR     39  21  48 CALM      30.04R
$$

NVZ002-CAZ072-073-231300-
NORTHERN AND CENTRAL SIERRA

CITY           SKY/WX    TMP DP  RH WIND       PRES   REMARKS
S. LAKE TAHOE  CLEAR     27  22  81 S3        30.04R
6HR MIN TEMP:  27; 6HR MAX TEMP:  32;

TRUCKEE        CLEAR     27  25  93 CALM      30.05R
SQUAW VLY 8000   N/A     25  19  80 VRB3        N/A
SUSANVILLE     CLEAR     28  23  80 CALM      30.05R
BLUE CANYON    CLEAR     35  26  69 CALM      30.06R
MAMMOTH LAKES  FAIR      30  14  51 S5        29.99R
BRIDGEPORT     MOCLDY    22  16  78 CALM      30.00R
$$

NVZ030-031-036-231300-
NORTHERN NEVADA

CITY           SKY/WX    TMP DP  RH WIND       PRES   REMARKS
ELKO           CLEAR     25  23  92 CALM      29.99R
6HR MIN TEMP:  25; 6HR MAX TEMP:  33;

WINNEMUCCA     MOCLDY    24  19  81 S5        30.03R
6HR MIN TEMP:  24; 6HR MAX TEMP:  37;

WENDOVER       PTCLDY    39  16  38 NW7       29.97R
$$

NVZ035-037-231300-
CENTRAL NEVADA

CITY           SKY/WX    TMP DP  RH WIND       PRES   REMARKS
ELY            MOCLDY    23  18  81 SE10      29.98R
6HR MIN TEMP:  23; 6HR MAX TEMP:  35;

EUREKA           N/A     27  21  78 CALM      29.99R
6HR MIN TEMP:  27; 6HR MAX TEMP:  34;

$$

NVZ013-014-231300-
SOUTH CENTRAL NEVADA

CITY           SKY/WX    TMP DP  RH WIND       PRES   REMARKS
TONOPAH        CLOUDY    38  17  42 NW7       29.99S
6HR MIN TEMP:  38; 6HR MAX TEMP:  41;

$$

NVZ017-020-022-231300-
SOUTHERN NEVADA

CITY           SKY/WX    TMP DP  RH WIND       PRES   REMARKS
LAS VEGAS      MOCLDY    63   9  12 NW12G21   29.81R
6HR MIN TEMP:  63; 6HR MAX TEMP:  70;

N. LAS VEGAS   CLEAR     61   8  12 NW13      29.84R
6HR MIN TEMP:  61; 6HR MAX TEMP:  69;

NELLIS AFB     PTCLDY    61  15  16 W6        29.86R
6HR MIN TEMP:  60; 6HR MAX TEMP:  68;

HENDERSON      CLEAR     59  11  15 N12       29.87R
6HR MIN TEMP:  56; 6HR MAX TEMP:  64;

MERCURY        CLOUDY    52  13  21 NE17G24   29.91R
6HR MIN TEMP:  51; 6HR MAX TEMP:  59;

$$



USA.gov is the U.S. government's official web portal to all federal, state and local government web resources and services.